Tracking 17703 objects as of 1-June-2016
HD Live streaming from Space Station
objects crossing your sky now

COSMOS 2418 (GLONASS)

Track COSMOS 2418 (GLONASS) now!
COSMOS 2418 (GLONASS) is classified as:


NORAD ID: 28916
Int'l Code: 2005-050B
Perigee: 19,096.9 km
Apogee: 19,176.8 km
Inclination: 65.3 °
Period: 675.7 minutes
Semi major axis: 25507 km
RCS: 3.9905 m2 (large)
Launch date: December 25, 2005
Source: Commonwealth of Independent States (former USSR) (CIS)
Launch site: TYURATAM MISSILE AND SPACE COMPLEX (TTMTR)
SV:
Your satellite tracking list
Your tracking list is empty





NASA's NSSDC Master Catalog

Two Line Element Set (TLE):
1 28916U 05050B   16152.25856413 -.00000024  00000-0  00000+0 0  9991
2 28916  65.3322  78.8208 0015657 331.7520 178.8919  2.13104085 81193
Source of the keplerian elements: AFSPC

N2YO: 633